Weather History for Sault Ste Marie, MI

Change the Weather History Date:

Sunday, November 10, 2013

  Actual Average Record
Temperature  
Mean Temperature 36 °F 36 °F  
Max Temperature 40 °F 43 °F 62 °F (1931)
Min Temperature 32 °F 30 °F 9 °F (1936)
Degree Days  
Heating Degree Days 29 29  
Month to date heating degree days 265 270  
Since 1 July heating degree days 1183 1275  
Moisture  
Dew Point 30 °F    
Average Humidity 76    
Maximum Humidity 92    
Minimum Humidity 59    
Precipitation  
Precipitation 0.14 in 0.11 in 1.60 in (1998)
Month to date precipitation 2.15 1.11  
Year to date precipitation 41.79 27.90  
Snow  
Snow T in 0.40 in 3.80 in (1986)
Month to date snowfall 3.5 3.1  
Since 1 July snowfall 10.2 4.7  
Snow Depth 0.00 in    
Sea Level Pressure  
Sea Level Pressure 29.93 in    
Wind  
Wind Speed 13 mph (WNW)    
Max Wind Speed 25 mph    
Max Gust Speed 36 mph    
Visibility 9 miles    
Events Rain , Snow    
T = Trace of Precipitation, MM = Missing Value Source: NWS Daily Summary

Daily Weather History Graph

Daily Weather History Graph

Search for Another Location

Airport:

Trip Planner

Search our weather history database for the weather conditions in past years. The results will help you decide how hot, cold, wet, or windy it might be!

Date:

Astronomy

Nov. 10, 2013 Rise Set
Actual Time 7:32 AM EST 5:09 PM EST
Civil Twilight 7:00 AM EST 5:42 PM EST
Nautical Twilight 6:23 AM EST 6:18 PM EST
Astronomical Twilight 5:48 AM EST 6:53 PM EST
Moon 1:37 PM EST (11/10) No Moon Set
Length of Visible Light 10h 42m
Length of Day
9h 37m
First Quarter, 55% of the Moon is Illuminated
Nov 10
First Quarter
Nov 17
Full
Nov 25
Last Quarter
Dec 2
New
Dec 9
First Quarter

Hourly Weather History & Observations

Time (EST) Temp. Windchill Dew Point Humidity Pressure Visibility Wind Dir Wind Speed Gust Speed Precip Events Conditions
12:17 AM 39.0 °F 29.6 °F 36.0 °F 89% 29.62 in 4.0 mi West 18.4 mph 29.9 mph 0.02 in Rain Light Rain
12:34 AM 39.9 °F 30.5 °F 37.0 °F 89% 29.63 in 9.0 mi WNW 19.6 mph 29.9 mph 0.03 in Rain Light Rain
12:55 AM 39.9 °F 32.5 °F 36.0 °F 86% 29.66 in 10.0 mi WNW 12.7 mph 28.8 mph 0.03 in Rain Light Rain
1:55 AM 39.0 °F 30.3 °F 36.0 °F 89% 29.68 in 10.0 mi WNW 16.1 mph 23.0 mph 0.01 in   Overcast
2:02 AM 39.0 °F 29.6 °F 35.1 °F 86% 29.66 in 10.0 mi WNW 18.4 mph 24.2 mph 0.00 in Rain Light Rain
2:16 AM 39.0 °F 30.3 °F 35.1 °F 86% 29.67 in 8.0 mi WNW 16.1 mph 24.2 mph 0.00 in Rain Light Rain
2:55 AM 39.0 °F 30.6 °F 35.1 °F 86% 29.70 in 10.0 mi WNW 15.0 mph 25.3 mph 0.00 in Rain Light Rain
3:55 AM 37.9 °F 29.6 °F 34.0 °F 86% 29.71 in 10.0 mi WNW 13.8 mph - 0.01 in Rain Light Rain
4:55 AM 36.0 °F 26.7 °F 33.1 °F 89% 29.75 in 7.0 mi NW 15.0 mph 26.5 mph 0.01 in Rain Light Rain
5:31 AM 36.0 °F 26.3 °F 32.0 °F 86% 29.80 in 8.0 mi NW 16.1 mph 25.3 mph 0.02 in Snow Light Snow
5:55 AM 35.1 °F 25.5 °F 32.0 °F 89% 29.79 in 6.0 mi NW 15.0 mph 26.5 mph 0.03 in Snow Light Snow
6:45 AM 34.0 °F 24.6 °F 32.0 °F 92% 29.81 in 3.0 mi NW 13.8 mph 31.1 mph 0.02 in Snow Light Snow
6:55 AM 35.1 °F 25.2 °F 32.0 °F 89% 29.86 in 9.0 mi NW 16.1 mph 25.3 mph 0.02 in Rain Light Rain
7:55 AM 35.1 °F 25.5 °F 30.9 °F 85% 29.88 in 10.0 mi NW 15.0 mph 27.6 mph 0.01 in Rain Light Rain
8:33 AM 35.1 °F 24.1 °F 30.9 °F 85% 29.90 in 10.0 mi NNW 19.6 mph 28.8 mph 0.00 in Rain Light Rain
8:55 AM 36.0 °F 26.7 °F 30.0 °F 79% 29.94 in 10.0 mi NNW 15.0 mph 32.2 mph 0.00 in   Overcast
9:55 AM 37.0 °F 26.7 °F 28.9 °F 73% 29.98 in 10.0 mi NNW 19.6 mph 33.4 mph 0.00 in   Clear
10:55 AM 36.0 °F 26.0 °F 28.9 °F 76% 30.04 in 3.0 mi WNW 17.3 mph 24.2 mph 0.00 in Snow Light Snow
10:57 AM 35.1 °F 24.5 °F 30.0 °F 82% 30.02 in 1.2 mi NW 18.4 mph 24.2 mph 0.00 in Snow Light Snow
11:16 AM 36.0 °F 26.7 °F 30.9 °F 82% 30.02 in 2.0 mi NW 15.0 mph 24.2 mph 0.01 in Snow Light Snow
11:24 AM 36.0 °F 26.7 °F 30.0 °F 79% 30.02 in 6.0 mi NW 15.0 mph - 0.01 in Snow Light Snow
11:38 AM 37.0 °F 26.7 °F 28.9 °F 73% 30.03 in 9.0 mi NW 19.6 mph 26.5 mph 0.02 in Rain Light Rain
11:55 AM 37.9 °F 27.9 °F 28.0 °F 68% 30.04 in 10.0 mi NW 19.6 mph 28.8 mph 0.02 in   Overcast
12:55 PM 39.0 °F 30.6 °F 26.1 °F 60% 30.06 in 10.0 mi NW 15.0 mph 35.7 mph 0.00 in   Overcast
1:55 PM 37.0 °F 28.1 °F 27.0 °F 67% 30.08 in 10.0 mi NW 15.0 mph 28.8 mph 0.00 in Snow Light Snow
2:08 PM 37.0 °F 27.7 °F 28.0 °F 70% 30.06 in 8.0 mi NW 16.1 mph 24.2 mph 0.00 in Snow Light Snow
2:41 PM 37.0 °F 28.5 °F 27.0 °F 67% 30.07 in 10.0 mi NW 13.8 mph 24.2 mph 0.00 in   Overcast
2:55 PM 37.0 °F 28.5 °F 26.1 °F 65% 30.09 in 10.0 mi NW 13.8 mph 25.3 mph 0.00 in   Overcast
3:55 PM 37.0 °F 28.9 °F 28.0 °F 70% 30.10 in 9.0 mi NW 12.7 mph - 0.00 in   Overcast
4:55 PM 37.0 °F 28.9 °F 25.0 °F 62% 30.12 in 10.0 mi WNW 12.7 mph 18.4 mph 0.00 in   Overcast
5:55 PM 37.0 °F 28.9 °F 25.0 °F 62% 30.13 in 10.0 mi WNW 12.7 mph - N/A   Overcast
6:55 PM 37.0 °F 33.3 °F 27.0 °F 67% 30.12 in 10.0 mi West 4.6 mph - N/A   Overcast
7:55 PM 35.1 °F 28.6 °F 28.0 °F 76% 30.12 in 10.0 mi WSW 8.1 mph - N/A   Overcast
8:55 PM 34.0 °F 26.6 °F 28.0 °F 79% 30.09 in 10.0 mi WSW 9.2 mph - N/A   Clear
9:55 PM 33.1 °F 26.9 °F 28.0 °F 82% 30.06 in 10.0 mi SW 6.9 mph - N/A   Partly Cloudy
10:55 PM 32.0 °F 26.4 °F 28.0 °F 85% 30.04 in 10.0 mi SSW 5.8 mph - N/A   Mostly Cloudy
11:55 PM 33.1 °F - 28.0 °F 82% 30.01 in 10.0 mi Calm Calm - N/A   Overcast